SCP
0 0 0 0 0 0 0 0 0 0 0 0 0 0 0 0 0 0 0 0 0 0 0 0 0 0 1 1 1 1 1 1 0 0 0 0 0 0 0 0 0 0 0 0
0 0 0 0 0 0 0 0 0 0 0 0 0 0 0 0 0 0 0 0 0 0 0 0 0 0 0 1 1 1 1 1 0 0 0 0 0 0 0 0 0 0 0 0
0 0 0 0 0 0 0 0 0 0 0 0 0 0 0 0 0 0 0 0 0 0 0 0 0 0 0 0 1 1 1 0 0 0 0 0 0 0 0 0 0 0 0 0
0 0 0 0 0 0 0 0 0 0 0 0 0 0 0 0 0 0 0 0 0 0 0 0 0 0 0 0 1 1 1 0 0 0 0 0 0 0 0 0 0 0 0 0
0 0 0 0 0 0 0 0 0 0 0 0 0 0 0 0 0 0 0 0 0 0 0 0 0 0 0 0 0 1 1 0 0 0 0 0 0 0 0 0 0 0 0 0
0 0 0 0 0 0 0 0 0 0 0 0 0 0 0 0 0 0 0 0 0 0 0 0 0 0 0 0 0 0 0 0 0 0 0 0 0 0 0 0 0 0 0 0
0 0 0 0 0 0 0 0 0 0 0 0 0 0 0 0 0 0 0 0 0 0 0 0 0 0 0 0 0 0 0 0 0 0 0 0 0 0 0 0 0 0 0 0
0 0 0 0 0 0 0 0 0 0 0 0 0 0 0 0 0 0 0 0 0 0 0 0 0 0 0 0 0 0 0 0 0 0 0 0 0 0 0 0 0 0 0 0
0 0 0 0 0 0 0 0 0 0 0 0 0 0 0 0 0 0 0 0 0 0 0 0 0 0 0 0 0 0 0 0 0 0 0 0 0 0 0 0 0 0 0 0
0 0 0 0 0 0 0 0 0 0 0 0 0 0 0 0 0 0 0 0 0 0 0 0 0 0 0 0 0 0 0 0 0 0 0 0 0 0 0 0 0 0 0 0
0 0 0 0 0 0 0 0 0 0 0 0 0 0 0 0 0 0 0 0 0 0 0 0 0 0 0 0 0 0 0 0 0 0 0 0 0 0 0 0 0 0 0 0
0 0 0 0 0 0 0 0 0 0 0 0 0 0 0 0 0 0 0 0 0 0 0 0 0 0 0 0 0 0 0 0 0 0 0 0 0 0 0 0 0 0 0 0
0 0 0 0 0 0 0 0 0 0 0 0 0 0 0 0 0 0 0 0 0 0 0 0 0 0 0 0 0 0 0 0 0 0 0 0 0 0 0 0 0 0 0 0
0 0 0 0 0 0 0 0 0 0 0 0 0 0 0 0 0 0 0 0 0 0 0 0 0 0 0 0 0 0 0 0 0 0 0 0 0 0 0 0 0 0 0 0
0 0 0 0 0 0 0 0 0 0 0 0 0 0 0 0 0 0 0 0 0 0 0 0 0 0 0 0 0 0 0 0 0 1 1 1 0 0 0 0 0 0 0 0
0 0 0 0 0 0 0 0 0 0 0 0 0 0 0 0 0 0 0 0 0 0 0 0 0 0 0 0 0 0 0 0 1 1 1 1 0 0 0 0 0 0 0 0
0 0 0 0 0 0 0 0 0 0 0 0 0 0 0 0 0 0 0 0 0 0 0 0 0 0 0 0 0 0 0 0 1 1 1 1 0 0 0 0 0 0 0 0
0 0 0 0 0 0 0 0 0 0 0 0 0 0 0 0 0 0 0 0 0 0 0 0 0 0 0 0 0 0 0 0 1 1 1 1 0 0 0 0 0 0 0 0
0 0 0 0 0 0 0 0 0 0 0 0 0 0 0 0 0 0 0 0 0 0 0 0 0 0 0 0 0 0 0 0 1 1 1 1 0 0 0 0 0 0 0 0
0 0 0 0 0 0 0 0 0 0 0 0 0 0 0 0 0 0 0 0 0 0 0 0 0 0 0 0 0 0 0 0 0 1 1 0 0 0 0 0 0 0 0 0
0 0 0 0 0 0 0 0 0 0 0 0 0 0 0 0 0 0 0 0 0 0 0 0 0 0 0 0 0 0 0 0 0 0 0 0 0 0 0 0 0 0 0 0
0 0 0 0 0 0 0 0 0 0 0 0 0 0 0 0 0 0 0 0 0 0 0 0 0 0 0 0 0 0 0 0 0 0 0 0 0 0 0 0 0 0 0 0
0 0 0 0 0 0 0 0 0 0 0 0 0 0 0 0 0 0 0 0 0 0 0 0 0 0 0 0 0 0 0 0 0 0 0 0 0 0 0 0 0 0 0 0
0 0 0 0 0 0 0 0 0 0 0 0 0 0 0 0 0 0 0 0 0 0 0 0 0 0 0 0 0 0 0 0 0 0 0 0 0 0 0 0 0 0 0 0
0 0 0 0 0 0 0 0 0 0 0 0 0 0 0 0 0 0 0 0 0 0 0 0 0 0 0 0 0 0 0 0 0 0 0 0 0 0 0 0 0 0 0 0
0 0 0 0 0 0 0 0 0 0 0 0 0 0 0 0 0 0 0 0 0 0 0 0 0 0 0 0 0 0 0 0 0 0 0 0 0 0 0 0 0 0 0 0
0 0 0 0 0 0 0 0 0 0 0 0 0 0 0 0 0 0 0 0 0 0 0 0 0 0 0 0 0 0 0 0 0 0 0 0 0 0 0 0 0 0 0 0
Wind_Speed
6 7 4 4 6 3 2 5 6 6 5 6 5 4 3 2 2 3 3 4 6 6 6 6 7 7 7 7 7 7 7 6 6 5 4 3 2 2 1 1 1 0 1 1
5 5 3 4 6 4 3 3 4 3 4 5 3 0 1 1 2 3 4 5 6 6 6 7 8 8 8 8 8 7 8 7 6 5 4 4 3 2 1 1 0 1 1 1
4 6 4 4 4 2 2 2 4 4 5 3 1 0 1 1 2 3 4 5 6 7 7 8 8 9 9 9 7 8 8 7 6 6 5 4 4 3 2 1 1 1 1 1
2 3 2 7 4 1 2 2 1 1 1 1 1 2 1 1 1 2 3 3 5 5 5 5 6 6 7 7 8 8 8 7 6 6 6 4 4 3 2 2 2 1 1 1
2 1 5 6 5 1 1 3 5 2 3 3 1 3 4 4 1 2 3 3 5 5 5 4 6 6 6 6 7 7 8 8 7 7 6 5 5 4 3 2 2 2 1 1
3 2 4 6 7 4 5 2 5 3 3 4 5 3 5 6 4 3 2 2 1 1 2 3 4 6 7 7 7 8 9 8 7 7 7 7 6 4 3 3 3 3 2 1
3 4 6 6 6 4 3 4 4 2 1 2 1 3 6 5 3 2 2 1 1 1 1 3 3 5 7 7 8 8 7 7 7 7 7 7 5 4 4 4 3 3 2 1
2 3 6 5 4 2 4 3 2 2 2 2 2 3 4 4 4 3 3 2 1 0 1 1 3 5 6 7 7 5 6 7 7 7 6 5 5 4 4 5 4 3 2 1
5 6 5 3 1 2 1 0 2 2 2 2 3 4 4 4 4 4 3 2 1 0 1 1 2 4 6 5 5 5 6 6 6 6 5 5 6 6 4 4 4 3 3 2
2 4 5 5 4 3 2 2 3 2 2 2 3 4 5 4 4 3 3 2 2 1 1 2 2 3 4 4 5 7 7 6 6 6 5 5 4 5 5 5 5 4 4 3
5 7 6 5 4 4 4 4 3 3 3 3 3 4 4 3 4 4 3 3 2 2 3 4 2 2 2 3 5 6 6 6 6 6 6 5 4 4 5 5 6 7 5 5
8 7 5 9 8 6 4 4 4 3 4 4 3 4 4 4 4 4 4 3 3 3 4 4 3 3 3 4 5 6 6 6 5 5 5 5 5 3 1 2 5 8 8 7
8 7 7 8 7 6 5 5 4 3 3 4 4 3 3 4 4 4 4 4 4 5 5 4 4 4 4 4 5 6 7 7 5 5 6 6 6 6 4 2 3 4 6 8
6 5 7 7 7 7 6 5 4 3 3 3 3 3 3 4 4 5 5 6 6 5 5 4 4 5 5 5 5 5 6 8 7 6 6 7 7 7 7 7 5 2 2 5
8 7 7 7 6 5 4 3 3 4 4 4 4 3 3 4 5 6 6 6 5 4 5 5 5 6 4 5 6 6 6 5 5 5 6 6 6 6 6 7 6 4 3 3
6 5 4 4 5 5 4 4 3 5 5 4 5 5 5 5 6 6 5 4 4 5 6 5 6 6 5 5 5 5 6 8 7 6 5 6 6 7 7 7 6 6 6 6
4 6 6 6 6 6 6 5 5 5 5 5 6 6 6 5 5 6 6 6 5 6 6 6 6 5 5 6 5 4 5 7 9 6 6 6 7 7 8 8 8 7 7 7
5 6 6 6 6 6 6 6 5 5 5 6 5 5 5 5 6 7 7 6 5 5 5 5 5 4 5 6 5 4 4 5 6 6 6 6 6 7 7 8 8 8 6 6
4 4 4 5 5 4 4 5 5 5 5 5 5 5 6 6 7 7 6 5 5 6 7 5 5 3 4 6 5 4 5 5 5 5 5 7 7 6 7 8 8 8 8 7
4 5 5 5 4 4 5 5 5 6 6 5 6 6 7 7 7 6 6 6 6 6 6 5 4 4 4 5 4 3 4 5 6 5 5 5 6 6 6 7 7 8 8 7
5 5 5 6 6 5 5 6 5 6 6 6 6 7 8 8 7 6 5 6 6 5 4 6 4 3 3 4 4 3 4 4 5 5 6 6 6 6 6 7 7 7 7 7
5 5 6 6 6 7 7 6 6 7 7 6 7 7 7 7 7 6 7 6 6 6 4 4 4 5 5 4 3 4 4 4 4 5 5 5 6 6 6 7 7 7 7 7
5 5 6 6 7 8 8 7 7 7 7 7 7 7 7 7 5 5 6 5 4 6 4 4 5 7 7 3 3 4 5 5 5 5 5 6 6 6 6 7 6 7 8 7
6 6 7 7 6 7 8 8 8 7 7 8 7 7 7 6 5 5 5 6 7 6 4 5 8 8 6 3 4 4 5 5 5 5 5 5 5 5 6 6 6 6 7 9
7 7 6 6 6 6 7 7 7 7 7 6 7 7 6 5 5 5 4 5 7 6 4 6 8 8 4 3 4 5 5 5 5 5 5 5 5 5 6 6 7 6 6 7
6 6 6 6 6 6 5 4 5 5 5 5 6 5 5 4 5 4 3 4 5 6 4 4 4 5 4 4 4 5 5 5 5 5 5 6 6 6 6 7 8 7 7 7
6 5 5 5 5 5 5 4 5 5 5 5 6 6 5 4 3 3 4 3 3 3 3 3 3 3 3 4 4 4 4 4 5 5 5 5 6 6 7 9 7 7 7 7
Wind_Direction
248 258 261 274 280 271 205 198 196 226 237 264 265 243 229 207 171 154 176 188 193 197 201 199 194 191 189 186 180 174 169 175 185 186 179 174 174 180 188 190 174 126 50 8
311 307 311 299 283 264 247 224 206 219 266 273 272 273 61 185 173 185 204 208 206 203 200 200 197 192 188 187 183 173 175 185 183 172 170 175 182 178 173 177 139 80 63 54
295 308 351 306 263 227 241 242 196 213 244 280 356 72 182 201 190 209 220 217 211 208 204 202 198 190 188 189 177 173 178 180 175 173 176 184 182 167 176 180 143 100 89 76
271 359 264 250 270 167 102 6 2 140 268 239 216 223 156 112 162 238 245 235 224 219 216 209 193 187 184 173 169 173 177 178 177 174 177 178 172 178 189 170 153 151 135 116
147 232 281 301 320 320 116 5 350 30 10 353 343 33 358 337 302 232 230 235 226 212 203 194 187 177 160 164 169 173 180 183 181 174 172 173 178 186 180 155 149 150 145 129
149 177 242 272 302 315 99 4 327 13 19 2 36 35 294 308 316 317 312 292 274 213 167 175 189 165 158 168 170 184 189 187 180 173 173 178 185 182 166 155 159 148 133 135
188 216 255 278 306 23 86 256 299 338 20 34 101 229 270 305 324 323 324 320 10 101 188 203 179 164 169 175 191 196 184 175 174 175 178 181 179 169 158 152 141 137 136 126
160 197 250 311 19 70 239 272 318 355 1 6 322 315 328 336 335 340 344 355 39 91 276 245 171 165 180 196 201 178 165 168 175 178 179 173 163 163 157 151 145 150 147 147
193 217 255 307 253 259 204 260 309 320 322 351 342 331 331 329 330 333 328 325 337 193 286 301 207 180 192 209 180 164 162 172 177 174 175 167 165 165 158 156 158 168 166 176
295 274 296 307 321 329 330 292 283 286 297 331 316 310 316 315 316 320 323 310 316 330 257 275 263 227 208 191 172 166 170 178 177 173 172 168 167 168 167 172 173 177 179 183
277 280 305 309 312 306 310 310 304 301 296 292 294 295 291 291 295 295 292 292 271 243 237 247 257 249 214 177 168 172 176 178 180 179 174 171 170 177 180 193 187 182 190 184
252 259 263 279 288 294 299 300 298 297 301 304 289 276 281 280 282 284 287 288 284 270 256 250 241 238 214 184 177 175 182 185 184 181 177 172 165 152 113 169 181 186 182 174
247 267 265 274 286 286 276 280 286 284 271 283 286 277 276 282 283 286 288 285 268 260 253 247 240 236 222 195 186 189 193 192 186 184 182 178 175 170 164 98 88 145 169 172
272 280 287 287 284 287 286 287 289 295 297 283 280 287 287 291 296 296 286 276 273 269 261 246 238 235 225 202 197 204 199 196 190 189 188 186 186 184 177 171 170 179 190 179
273 263 260 272 281 288 294 301 306 304 306 308 305 298 293 291 286 282 285 291 290 280 269 254 243 240 226 207 203 207 201 198 194 190 189 188 185 181 181 181 176 167 159 173
271 278 278 279 277 280 285 282 277 279 282 287 292 288 283 278 277 282 285 286 284 273 266 256 250 243 223 210 209 213 210 206 194 187 186 184 182 182 182 182 180 179 182 180
272 281 283 282 277 276 270 265 259 262 272 277 280 284 289 295 297 294 289 279 266 261 255 250 253 247 224 214 209 216 214 206 197 191 189 188 187 188 185 182 184 188 193 187
246 253 258 260 264 268 271 271 269 269 267 270 283 291 289 286 281 278 279 281 284 287 276 262 256 246 230 221 214 212 208 202 199 196 193 191 191 190 185 183 184 183 181 180
273 269 275 273 267 264 267 272 275 276 277 279 280 278 275 273 273 275 275 273 270 273 274 269 270 252 237 228 219 207 205 201 199 198 194 190 186 185 183 181 180 179 175 171
294 285 280 281 280 273 273 278 283 285 286 283 282 282 281 279 279 277 268 257 247 249 256 260 249 239 236 226 216 208 205 201 196 195 192 189 184 181 180 177 175 174 175 175
302 300 295 289 283 279 274 272 275 278 282 282 280 278 276 276 274 270 263 265 267 264 259 252 238 234 233 231 215 210 205 202 196 192 189 188 183 178 178 176 172 172 172 171
291 292 291 291 289 286 281 273 269 273 277 279 279 279 280 279 274 268 253 247 256 261 254 236 236 242 247 242 214 209 206 202 199 193 187 183 181 179 179 178 175 170 166 165
277 277 281 284 283 283 285 280 271 266 266 268 270 270 269 269 263 258 269 265 253 253 251 236 250 256 252 232 215 210 205 203 201 194 189 185 181 178 175 173 173 168 163 161
276 276 275 277 280 281 280 279 277 272 266 266 265 265 265 269 271 259 254 265 268 262 248 241 246 247 244 221 215 212 207 204 202 195 187 183 177 172 169 166 165 166 162 158
274 273 276 282 281 274 271 276 282 281 277 275 275 274 269 255 253 262 260 249 255 260 253 249 250 248 235 219 216 212 208 207 203 192 184 180 176 172 169 166 164 162 161 160
274 272 268 263 261 266 270 271 273 276 280 283 284 280 275 270 264 259 251 246 245 257 256 242 236 237 229 221 218 210 204 206 204 194 185 181 176 173 170 169 166 165 164 163
273 273 274 278 277 270 268 266 265 270 272 273 278 279 276 274 268 261 254 250 246 247 249 244 234 231 235 229 219 211 203 198 192 188 183 180 177 175 172 169 168 165 162 160